Regional Weather Roundup
Issued by NWS

Home | Current Version | Previous Version | Graphics & Text | Print | Product List | Glossary On
Versions: 1 2 3 4 5 6 7 8 9 10 11 12 13 14 15 16 17 18 19 20 21 22 23 24 25 26 27 28 29 30 31 32 33 34 35 36 37 38 39 40 41 42 43 44 45 46 47 48 49 50
380
ASUS43 KBIS 220402
RWRND

NORTH DAKOTA REGIONAL WEATHER ROUNDUP
NATIONAL WEATHER SERVICE BISMARCK ND
1100 PM CDT THU SEP 21 2017

NOTE: "FAIR" INDICATES FEW OR NO CLOUDS BELOW 12,000 FEET WITH NO
SIGNIFICANT WEATHER AND/OR OBSTRUCTIONS TO VISIBILITY.


NDZ001>003-009>011-017-220500-
NORTHWEST NORTH DAKOTA

CITY           SKY/WX    TMP DP  RH WIND       PRES   REMARKS
WILLISTON      CLOUDY    51  37  58 N12       29.89S
MINOT          CLOUDY    53  39  59 NW14      29.83S
MINOT AFB      CLOUDY    52  39  63 NW12      29.82S
$$

NDZ018>021-031>035-040>046-220500-
SOUTHWEST NORTH DAKOTA

CITY           SKY/WX    TMP DP  RH WIND       PRES   REMARKS
BISMARCK       CLEAR     61  47  59 N13G21    29.79R
DICKINSON      CLOUDY    51  38  60 N8        29.86R
GARRISON         N/A     50  42  74 N12       29.82S
HETTINGER ARPT PTCLDY    53  38  56 N15       29.84R
$$

NDZ004>008-012>016-024-026-027-054-220500-
NORTHEAST NORTH DAKOTA

CITY           SKY/WX    TMP DP  RH WIND       PRES   REMARKS
GRAND FORKS    CLEAR     68  58  70 SE6       29.71R
GRND FRKS AFB  PTCLDY    65  56  75 SE6       29.72R
DEVILS LAKE    PTCLDY    61  51  70 N13       29.78R
$$

NDZ022-023-025-028>030-036>039-047>053-220500-
SOUTHEAST NORTH DAKOTA

CITY           SKY/WX    TMP DP  RH WIND       PRES   REMARKS
FARGO          CLEAR     73  66  78 SE9       29.71R
JAMESTOWN      CLEAR     63  54  72 N9        29.72S
$$





USA.gov is the U.S. government's official web portal to all federal, state and local government web resources and services.